Index of /20260430/WXO-DD/model_gdps/15km/00/225
Name Last modified Size Description
Parent Directory -
20260430T00Z_MSC_GDPS_AirTemp_AGL-120m_LatLon0.15_PT225H.grib2 2026-04-30 04:39 906K
20260430T00Z_MSC_GDPS_AirTemp_AGL-2m_LatLon0.15_PT225H.grib2 2026-04-30 04:39 1.0M
20260430T00Z_MSC_GDPS_AirTemp_AGL-40m_LatLon0.15_PT225H.grib2 2026-04-30 04:39 808K
20260430T00Z_MSC_GDPS_AirTemp_AGL-80m_LatLon0.15_PT225H.grib2 2026-04-30 04:39 796K
20260430T00Z_MSC_GDPS_AirTemp_IsbL-0001_LatLon0.15_PT225H.grib2 2026-04-30 04:39 659K
20260430T00Z_MSC_GDPS_AirTemp_IsbL-0005_LatLon0.15_PT225H.grib2 2026-04-30 04:39 687K
20260430T00Z_MSC_GDPS_AirTemp_IsbL-0500_LatLon0.15_PT225H.grib2 2026-04-30 04:39 1.0M
20260430T00Z_MSC_GDPS_AirTemp_IsbL-0700_LatLon0.15_PT225H.grib2 2026-04-30 04:39 952K
20260430T00Z_MSC_GDPS_AirTemp_IsbL-0850_LatLon0.15_PT225H.grib2 2026-04-30 04:39 1.1M
20260430T00Z_MSC_GDPS_AirTemp_IsbL-0925_LatLon0.15_PT225H.grib2 2026-04-30 04:39 1.1M
20260430T00Z_MSC_GDPS_AirTemp_IsbL-1000_LatLon0.15_PT225H.grib2 2026-04-30 04:39 1.1M
20260430T00Z_MSC_GDPS_Albedo_Sfc_LatLon0.15_PT225H.grib2 2026-04-30 04:39 240K
20260430T00Z_MSC_GDPS_ConvectivePrecip-Accum_Sfc_LatLon0.15_PT225H.grib2 2026-04-30 04:39 3.8M
20260430T00Z_MSC_GDPS_DewPointDepression_AGL-2m_LatLon0.15_PT225H.grib2 2026-04-30 04:39 762K
20260430T00Z_MSC_GDPS_DewPointDepression_IsbL-0500_LatLon0.15_PT225H.grib2 2026-04-30 04:39 1.0M
20260430T00Z_MSC_GDPS_DewPointDepression_IsbL-0700_LatLon0.15_PT225H.grib2 2026-04-30 04:39 1.1M
20260430T00Z_MSC_GDPS_DewPointDepression_IsbL-0850_LatLon0.15_PT225H.grib2 2026-04-30 04:39 1.2M
20260430T00Z_MSC_GDPS_DewPointDepression_IsbL-0925_LatLon0.15_PT225H.grib2 2026-04-30 04:39 1.0M
20260430T00Z_MSC_GDPS_DewPointDepression_IsbL-1000_LatLon0.15_PT225H.grib2 2026-04-30 04:39 961K
20260430T00Z_MSC_GDPS_DewPoint_AGL-2m_LatLon0.15_PT225H.grib2 2026-04-30 04:39 610K
20260430T00Z_MSC_GDPS_DownwardLongwaveRadiationFlux-Accum_Sfc_LatLon0.15_PT225H.grib2 2026-04-30 04:39 731K
20260430T00Z_MSC_GDPS_DownwardShortwaveRadiationFlux-Accum_Sfc_LatLon0.15_PT225H.grib2 2026-04-30 04:39 905K
20260430T00Z_MSC_GDPS_FreezingRain-Accum_Sfc_LatLon0.15_PT225H.grib2 2026-04-30 04:39 406K
20260430T00Z_MSC_GDPS_GeopotentialHeight_IsbL-0001_LatLon0.15_PT225H.grib2 2026-04-30 04:39 429K
20260430T00Z_MSC_GDPS_GeopotentialHeight_IsbL-0005_LatLon0.15_PT225H.grib2 2026-04-30 04:39 476K
20260430T00Z_MSC_GDPS_GeopotentialHeight_IsbL-0500_LatLon0.15_PT225H.grib2 2026-04-30 04:39 530K
20260430T00Z_MSC_GDPS_GeopotentialHeight_IsbL-0700_LatLon0.15_PT225H.grib2 2026-04-30 04:39 693K
20260430T00Z_MSC_GDPS_GeopotentialHeight_IsbL-0850_LatLon0.15_PT225H.grib2 2026-04-30 04:39 724K
20260430T00Z_MSC_GDPS_GeopotentialHeight_IsbL-0925_LatLon0.15_PT225H.grib2 2026-04-30 04:39 737K
20260430T00Z_MSC_GDPS_GeopotentialHeight_IsbL-1000_LatLon0.15_PT225H.grib2 2026-04-30 04:39 792K
20260430T00Z_MSC_GDPS_IcePellets-Accum_Sfc_LatLon0.15_PT225H.grib2 2026-04-30 04:39 141K
20260430T00Z_MSC_GDPS_LatentHeatNetFlux_Sfc_LatLon0.15_PT225H.grib2 2026-04-30 04:39 563K
20260430T00Z_MSC_GDPS_NetLongwaveRadiationFlux-Accum_Sfc_LatLon0.15_PT225H.grib2 2026-04-30 04:39 928K
20260430T00Z_MSC_GDPS_NetShortwaveRadiationFlux-Accum_Sfc_LatLon0.15_PT225H.grib2 2026-04-30 04:39 903K
20260430T00Z_MSC_GDPS_O3MixingRatio_Sfc_LatLon0.15_PT225H.grib2 2026-04-30 04:51 1.9M
20260430T00Z_MSC_GDPS_O3_EAtm_LatLon0.15_PT225H.grib2 2026-04-30 04:51 2.4M
20260430T00Z_MSC_GDPS_PlanetaryBoundaryLayerHeight_Sfc_LatLon0.15_PT225H.grib2 2026-04-30 04:39 2.5M
20260430T00Z_MSC_GDPS_Precip-Accum_Sfc_LatLon0.15_PT225H.grib2 2026-04-30 04:39 5.1M
20260430T00Z_MSC_GDPS_PrecipRate_Sfc_LatLon0.15_PT225H.grib2 2026-04-30 04:39 3.2M
20260430T00Z_MSC_GDPS_Pressure_MSL_LatLon0.15_PT225H.grib2 2026-04-30 04:39 724K
20260430T00Z_MSC_GDPS_Pressure_Sfc_LatLon0.15_PT225H.grib2 2026-04-30 04:39 1.1M
20260430T00Z_MSC_GDPS_RadiativeTemp_Sfc_LatLon0.15_PT225H.grib2 2026-04-30 04:39 510K
20260430T00Z_MSC_GDPS_Rain-Accum_Sfc_LatLon0.15_PT225H.grib2 2026-04-30 04:39 4.0M
20260430T00Z_MSC_GDPS_RelativeHumidity_AGL-2m_LatLon0.15_PT225H.grib2 2026-04-30 04:39 1.0M
20260430T00Z_MSC_GDPS_Runoff-Accum_Sfc_LatLon0.15_PT225H.grib2 2026-04-30 04:39 138K
20260430T00Z_MSC_GDPS_SensibleHeatNetFlux_Sfc_LatLon0.15_PT225H.grib2 2026-04-30 04:39 667K
20260430T00Z_MSC_GDPS_Snow-Accum_Sfc_LatLon0.15_PT225H.grib2 2026-04-30 04:39 2.2M
20260430T00Z_MSC_GDPS_SnowDepth_Sfc_LatLon0.15_PT225H.grib2 2026-04-30 04:39 1.7M
20260430T00Z_MSC_GDPS_SoilTemp_DBS-0to10cm_LatLon0.15_PT225H.grib2 2026-04-30 04:39 515K
20260430T00Z_MSC_GDPS_SoilTemp_Sfc_LatLon0.15_PT225H.grib2 2026-04-30 04:39 597K
20260430T00Z_MSC_GDPS_SoilVolumetricWaterContent_DBS-0to10cm_LatLon0.15_PT225H.grib2 2026-04-30 04:39 595K
20260430T00Z_MSC_GDPS_SoilVolumetricWaterContent_DBS-0to1cm_LatLon0.15_PT225H.grib2 2026-04-30 04:39 650K
20260430T00Z_MSC_GDPS_SpecificHumidity_AGL-120m_LatLon0.15_PT225H.grib2 2026-04-30 04:39 1.1M
20260430T00Z_MSC_GDPS_SpecificHumidity_AGL-2m_LatLon0.15_PT225H.grib2 2026-04-30 04:39 1.2M
20260430T00Z_MSC_GDPS_SpecificHumidity_AGL-40m_LatLon0.15_PT225H.grib2 2026-04-30 04:39 1.1M
20260430T00Z_MSC_GDPS_SpecificHumidity_AGL-80m_LatLon0.15_PT225H.grib2 2026-04-30 04:39 1.1M
20260430T00Z_MSC_GDPS_SpecificHumidity_IsbL-0001_LatLon0.15_PT225H.grib2 2026-04-30 04:39 1.1M
20260430T00Z_MSC_GDPS_SpecificHumidity_IsbL-0005_LatLon0.15_PT225H.grib2 2026-04-30 04:39 1.0M
20260430T00Z_MSC_GDPS_SpecificHumidity_IsbL-0500_LatLon0.15_PT225H.grib2 2026-04-30 04:39 1.5M
20260430T00Z_MSC_GDPS_SpecificHumidity_IsbL-0700_LatLon0.15_PT225H.grib2 2026-04-30 04:39 1.6M
20260430T00Z_MSC_GDPS_SpecificHumidity_IsbL-0850_LatLon0.15_PT225H.grib2 2026-04-30 04:39 2.0M
20260430T00Z_MSC_GDPS_SpecificHumidity_IsbL-0925_LatLon0.15_PT225H.grib2 2026-04-30 04:39 1.6M
20260430T00Z_MSC_GDPS_SpecificHumidity_IsbL-1000_LatLon0.15_PT225H.grib2 2026-04-30 04:39 1.5M
20260430T00Z_MSC_GDPS_SpecificHumidity_Sfc_LatLon0.15_PT225H.grib2 2026-04-30 04:39 690K
20260430T00Z_MSC_GDPS_Thickness_IsbL-0850to0700_LatLon0.15_PT225H.grib2 2026-04-30 04:39 467K
20260430T00Z_MSC_GDPS_Thickness_IsbL-1000to0500_LatLon0.15_PT225H.grib2 2026-04-30 04:39 371K
20260430T00Z_MSC_GDPS_Thickness_IsbL-1000to0850_LatLon0.15_PT225H.grib2 2026-04-30 04:39 490K
20260430T00Z_MSC_GDPS_TotalCloudCover_Sfc_LatLon0.15_PT225H.grib2 2026-04-30 04:39 839K
20260430T00Z_MSC_GDPS_UVIndex-ClearSky_Sfc_LatLon0.15_PT225H.grib2 2026-04-30 04:51 1.1M
20260430T00Z_MSC_GDPS_UVIndex_Sfc_LatLon0.15_PT225H.grib2 2026-04-30 04:51 1.5M
20260430T00Z_MSC_GDPS_UpwardLongwaveRadiationFlux_NTAtm_LatLon0.15_PT225H.grib2 2026-04-30 04:39 841K
20260430T00Z_MSC_GDPS_VerticalVelocity_IsbL-0500_LatLon0.15_PT225H.grib2 2026-04-30 04:39 1.2M
20260430T00Z_MSC_GDPS_VerticalVelocity_IsbL-0700_LatLon0.15_PT225H.grib2 2026-04-30 04:39 1.4M
20260430T00Z_MSC_GDPS_VerticalVelocity_IsbL-0850_LatLon0.15_PT225H.grib2 2026-04-30 04:39 1.3M
20260430T00Z_MSC_GDPS_WindDir_AGL-10m_LatLon0.15_PT225H.grib2 2026-04-30 04:39 1.3M
20260430T00Z_MSC_GDPS_WindDir_AGL-120m_LatLon0.15_PT225H.grib2 2026-04-30 04:39 1.3M
20260430T00Z_MSC_GDPS_WindDir_AGL-40m_LatLon0.15_PT225H.grib2 2026-04-30 04:39 1.4M
20260430T00Z_MSC_GDPS_WindDir_AGL-80m_LatLon0.15_PT225H.grib2 2026-04-30 04:39 1.3M
20260430T00Z_MSC_GDPS_WindDir_IsbL-0001_LatLon0.15_PT225H.grib2 2026-04-30 04:39 656K
20260430T00Z_MSC_GDPS_WindDir_IsbL-0005_LatLon0.15_PT225H.grib2 2026-04-30 04:39 796K
20260430T00Z_MSC_GDPS_WindDir_IsbL-0500_LatLon0.15_PT225H.grib2 2026-04-30 04:39 1.3M
20260430T00Z_MSC_GDPS_WindDir_IsbL-0700_LatLon0.15_PT225H.grib2 2026-04-30 04:39 1.6M
20260430T00Z_MSC_GDPS_WindDir_IsbL-0850_LatLon0.15_PT225H.grib2 2026-04-30 04:39 1.9M
20260430T00Z_MSC_GDPS_WindDir_IsbL-0925_LatLon0.15_PT225H.grib2 2026-04-30 04:39 1.9M
20260430T00Z_MSC_GDPS_WindDir_IsbL-1000_LatLon0.15_PT225H.grib2 2026-04-30 04:39 2.0M
20260430T00Z_MSC_GDPS_WindGust-Max_AGL-10m_LatLon0.15_PT225H.grib2 2026-04-30 04:39 2.2M
20260430T00Z_MSC_GDPS_WindGust-Min_AGL-10m_LatLon0.15_PT225H.grib2 2026-04-30 04:39 2.1M
20260430T00Z_MSC_GDPS_WindGust_AGL-10m_LatLon0.15_PT225H.grib2 2026-04-30 04:39 2.1M
20260430T00Z_MSC_GDPS_WindSpeed_AGL-10m_LatLon0.15_PT225H.grib2 2026-04-30 04:39 1.1M
20260430T00Z_MSC_GDPS_WindSpeed_AGL-120m_LatLon0.15_PT225H.grib2 2026-04-30 04:39 1.2M
20260430T00Z_MSC_GDPS_WindSpeed_AGL-40m_LatLon0.15_PT225H.grib2 2026-04-30 04:39 1.2M
20260430T00Z_MSC_GDPS_WindSpeed_AGL-80m_LatLon0.15_PT225H.grib2 2026-04-30 04:39 1.2M
20260430T00Z_MSC_GDPS_WindSpeed_IsbL-0001_LatLon0.15_PT225H.grib2 2026-04-30 04:39 648K
20260430T00Z_MSC_GDPS_WindSpeed_IsbL-0005_LatLon0.15_PT225H.grib2 2026-04-30 04:39 683K
20260430T00Z_MSC_GDPS_WindSpeed_IsbL-0500_LatLon0.15_PT225H.grib2 2026-04-30 04:39 1.1M
20260430T00Z_MSC_GDPS_WindSpeed_IsbL-0700_LatLon0.15_PT225H.grib2 2026-04-30 04:39 1.5M
20260430T00Z_MSC_GDPS_WindSpeed_IsbL-0850_LatLon0.15_PT225H.grib2 2026-04-30 04:39 1.7M
20260430T00Z_MSC_GDPS_WindSpeed_IsbL-0925_LatLon0.15_PT225H.grib2 2026-04-30 04:39 1.8M
20260430T00Z_MSC_GDPS_WindSpeed_IsbL-1000_LatLon0.15_PT225H.grib2 2026-04-30 04:39 1.8M
20260430T00Z_MSC_GDPS_WindU_AGL-10m_LatLon0.15_PT225H.grib2 2026-04-30 04:39 1.3M
20260430T00Z_MSC_GDPS_WindU_AGL-120m_LatLon0.15_PT225H.grib2 2026-04-30 04:39 1.0M
20260430T00Z_MSC_GDPS_WindU_AGL-40m_LatLon0.15_PT225H.grib2 2026-04-30 04:39 954K
20260430T00Z_MSC_GDPS_WindU_AGL-80m_LatLon0.15_PT225H.grib2 2026-04-30 04:39 1.0M
20260430T00Z_MSC_GDPS_WindU_IsbL-0001_LatLon0.15_PT225H.grib2 2026-04-30 04:39 500K
20260430T00Z_MSC_GDPS_WindU_IsbL-0005_LatLon0.15_PT225H.grib2 2026-04-30 04:39 681K
20260430T00Z_MSC_GDPS_WindU_IsbL-0500_LatLon0.15_PT225H.grib2 2026-04-30 04:39 1.1M
20260430T00Z_MSC_GDPS_WindU_IsbL-0700_LatLon0.15_PT225H.grib2 2026-04-30 04:39 1.2M
20260430T00Z_MSC_GDPS_WindU_IsbL-0850_LatLon0.15_PT225H.grib2 2026-04-30 04:39 1.4M
20260430T00Z_MSC_GDPS_WindU_IsbL-0925_LatLon0.15_PT225H.grib2 2026-04-30 04:39 1.4M
20260430T00Z_MSC_GDPS_WindU_IsbL-1000_LatLon0.15_PT225H.grib2 2026-04-30 04:39 1.4M
20260430T00Z_MSC_GDPS_WindV_AGL-10m_LatLon0.15_PT225H.grib2 2026-04-30 04:39 1.3M
20260430T00Z_MSC_GDPS_WindV_AGL-120m_LatLon0.15_PT225H.grib2 2026-04-30 04:39 1.0M
20260430T00Z_MSC_GDPS_WindV_AGL-40m_LatLon0.15_PT225H.grib2 2026-04-30 04:39 957K
20260430T00Z_MSC_GDPS_WindV_AGL-80m_LatLon0.15_PT225H.grib2 2026-04-30 04:39 1.0M
20260430T00Z_MSC_GDPS_WindV_IsbL-0001_LatLon0.15_PT225H.grib2 2026-04-30 04:39 711K
20260430T00Z_MSC_GDPS_WindV_IsbL-0005_LatLon0.15_PT225H.grib2 2026-04-30 04:39 848K
20260430T00Z_MSC_GDPS_WindV_IsbL-0500_LatLon0.15_PT225H.grib2 2026-04-30 04:39 1.1M
20260430T00Z_MSC_GDPS_WindV_IsbL-0700_LatLon0.15_PT225H.grib2 2026-04-30 04:39 1.2M
20260430T00Z_MSC_GDPS_WindV_IsbL-0850_LatLon0.15_PT225H.grib2 2026-04-30 04:39 1.4M
20260430T00Z_MSC_GDPS_WindV_IsbL-0925_LatLon0.15_PT225H.grib2 2026-04-30 04:39 1.4M
20260430T00Z_MSC_GDPS_WindV_IsbL-1000_LatLon0.15_PT225H.grib2 2026-04-30 04:39 1.4M